Change the Weather History Date:

Wednesday, January 29, 2014

  Actual Average Record
Temperature  
Mean Temperature 33 °F 25 °F  
Max Temperature 41 °F 37 °F 52 °F (2012)
Min Temperature 25 °F 13 °F -40 °F (1951)
Degree Days  
Heating Degree Days 32 40  
Month to date heating degree days 1085 1207  
Since 1 July heating degree days 4530 4442  
Cooling Degree Days 0 0  
Month to date cooling degree days 0 0  
Year to date cooling degree days 0 0  
Moisture  
Dew Point 25 °F    
Average Humidity 71    
Maximum Humidity 89    
Minimum Humidity 52    
Precipitation  
Precipitation 0.01 in 0.01 in 0.07 in (1942)
Month to date precipitation 0.18 0.45  
Year to date precipitation 0.18 0.45  
Snow  
Snow T in 0.10 in 3.00 in (1985)
Month to date snowfall 3.0 3.7  
Since 1 July snowfall 10.0 17.1  
Snow Depth T in    
Sea Level Pressure  
Sea Level Pressure 29.74 in    
Wind  
Wind Speed 5 mph (WNW)    
Max Wind Speed 26 mph    
Max Gust Speed 36 mph    
Visibility 8 miles    
Events Rain , Snow    
T = Trace of Precipitation, MM = Missing Value Source: NWS Daily Summary

Daily Weather History Graph

Daily Weather History Graph

Search for Another Location

Airport or City:

Trip Planner

Search our weather history database for the weather conditions in past years. The results will help you decide how hot, cold, wet, or windy it might be!

Date:

Astronomy

Jan. 29, 2014 Rise Set
Actual Time 7:49 AM MST 5:26 PM MST
Civil Twilight 7:17 AM MST 5:58 PM MST
Nautical Twilight 6:41 AM MST 6:34 PM MST
Astronomical Twilight 6:06 AM MST 7:09 PM MST
Moon 6:29 AM MST (1/29) 4:30 PM MST (1/29)
Length of Visible Light 10h 40m
Length of Day
9h 36m
Waning Crescent, 2% of the Moon is Illuminated
Jan 29
Waning Crescent
Jan 30
New
Feb 6
First Quarter
Feb 14
Full
Feb 22
Last Quarter

Hourly Weather History & Observations

Time (MST) Temp. Windchill Dew Point Humidity Pressure Visibility Wind Dir Wind Speed Gust Speed Precip Events Conditions
12:56 AM 25.0 °F 18.1 °F 17.1 °F 72% 30.08 in 10.0 mi North 5.8 mph - N/A   Overcast
1:56 AM 25.0 °F - 18.0 °F 75% 30.05 in 10.0 mi Calm Calm - N/A   Overcast
2:56 AM 27.0 °F 21.6 °F 19.0 °F 72% 30.04 in 10.0 mi South 4.6 mph - N/A   Overcast
3:56 AM 27.0 °F - 19.0 °F 72% 30.01 in 10.0 mi Calm Calm - N/A   Mostly Cloudy
4:56 AM 26.1 °F - 19.9 °F 78% 30.01 in 10.0 mi North - - N/A   Overcast
5:56 AM 28.9 °F 22.8 °F 21.0 °F 72% 29.98 in 10.0 mi SSW 5.8 mph - N/A   Overcast
6:56 AM 32.0 °F 28.7 °F 23.0 °F 69% 29.90 in 10.0 mi South 3.5 mph - N/A   Overcast
7:56 AM 32.0 °F - 23.0 °F 69% 29.86 in 10.0 mi Calm Calm - N/A   Overcast
8:56 AM 33.1 °F - 25.0 °F 72% 29.82 in 10.0 mi Calm Calm - N/A   Overcast
9:02 AM 32.0 °F 27.5 °F 25.0 °F 75% 29.71 in 7.0 mi ENE 4.6 mph - 0.00 in Snow Light Snow
9:34 AM 30.9 °F 27.5 °F 27.0 °F 85% 29.70 in 2.5 mi WSW 3.5 mph - 0.00 in Snow Light Snow
9:41 AM 30.9 °F - 27.0 °F 85% 29.69 in 1.8 mi Calm Calm - 0.00 in Snow Light Snow
9:53 AM 32.0 °F - 28.4 °F 87% 29.68 in 3.0 mi Calm Calm - 0.00 in Snow Light Snow
9:56 AM 32.0 °F - 28.9 °F 88% 29.77 in 4.0 mi Calm Calm - 0.00 in Snow Light Snow
10:05 AM 32.0 °F - 28.9 °F 88% 29.68 in 7.0 mi Calm Calm - 0.00 in   Overcast
10:56 AM 34.0 °F 31.0 °F 30.0 °F 85% 29.74 in 10.0 mi South 3.5 mph - 0.00 in   Overcast
11:56 AM 36.0 °F - 30.9 °F 82% 29.68 in 10.0 mi Calm Calm - N/A   Overcast
12:56 PM 36.0 °F 32.1 °F 32.0 °F 86% 29.62 in 10.0 mi NNE 4.6 mph - N/A   Overcast
1:56 PM 37.9 °F 34.4 °F 32.0 °F 79% 29.57 in 10.0 mi NNW 4.6 mph - N/A   Overcast
2:56 PM 41.0 °F 35.8 °F 30.0 °F 65% 29.55 in 10.0 mi NW 8.1 mph - N/A   Overcast
3:56 PM 37.9 °F 27.3 °F 30.9 °F 76% 29.59 in 7.0 mi West 21.9 mph 35.7 mph 0.01 in Rain Light Rain
4:56 PM 36.0 °F 32.1 °F 32.0 °F 86% 29.61 in 10.0 mi WNW 4.6 mph - 0.00 in   Overcast
5:56 PM 37.0 °F - 30.0 °F 76% 29.60 in 10.0 mi Calm Calm - N/A   Overcast
6:56 PM 37.0 °F 34.5 °F 28.0 °F 70% 29.59 in 10.0 mi Variable 3.5 mph - N/A   Overcast
7:56 PM 37.0 °F 30.4 °F 25.0 °F 62% 29.57 in 10.0 mi West 9.2 mph 16.1 mph N/A   Scattered Clouds
8:56 PM 33.1 °F 28.7 °F 23.0 °F 66% 29.60 in 10.0 mi NE 4.6 mph - N/A   Clear
9:56 PM 35.1 °F 27.4 °F 19.0 °F 52% 29.60 in 10.0 mi West 10.4 mph - N/A   Partly Cloudy
10:56 PM 30.9 °F 27.5 °F 21.0 °F 67% 29.61 in 10.0 mi ENE 3.5 mph - N/A   Mostly Cloudy
11:56 PM 37.0 °F 29.8 °F 21.0 °F 52% 29.60 in 3.0 mi NW 10.4 mph - 0.00 in Snow Light Snow